"Pseudo-MPEC" for P10NTjW

Created 2019 May 24 17:07:07 UT using Find_Orb

Click here for an explanation of pseudo-MPECs

 
 Astrometry: 
     P10NTjW  C2019 04 06`JNdd1!('n6)(_HE'Kmi%'1'(Yl`?==m''Y(c`Qyi3oO\:08?#[EF51
     P10NTjW  C2019 04 06^FLg%'E5Dlp%KSh1*A!=7*S+:EKqZpVvC,n$+*IQN#-qh78C/OM5F51
     P10NTjW  C2019 04 06A`mv0IW`F=T$H8MymVVMEl?Astrometryh!opq^k3D^d.aAna8f`F51
     P10NTjW  C2019 05 11;m9bIJPo.p7c?a[#SH!k2/--#nEYZ_NNS6Q#S\L;R=%q%:N2bO#OF51
     P10NTjW  C2019 05 11^d6;Y6tmO#u(m'_ce;)ufb5:tQCQZ'KvOaJB6MrsAy2Abx7#[2CCF51
     P10NTjW  C2019 05 11!]qSZHgad87mSa6ji.=d-)_I'QcI9e`0r@Y_[wxrkQ3[uViltPvZF51
     P10NTjW  C2019 05 11yW1YNN(gmhxe.WKi.#;y.(Z*_#PY-Lm`^X?2a!yTiw@Q.Et=H5pVF51
     P10NTjW  C2019 05 14.26403 15 10 48.76 +24 18 09.5    ~5E6q 21.7 GVNEOCPI52
     P10NTjW  C2019 05 14.26737 15 10 48.57 +24 18 10.4    ~5E6q 21.5 GVNEOCPI52
     P10NTjW  C2019 05 14.27070 15 10 48.37 +24 18 13.5    ~5E6q 21.2 GVNEOCPI52
     P10NTjW  C2019 05 14.27403 15 10 48.13 +24 18 14.0    ~5E6q 21.0 GVNEOCPI52
     P10NTjW KC2019 05 24r+:WbEjpK80/redacted;p*u1+ufuL,[+!RSjHcbSXs#dfNVP8LZ691
     P10NTjW KC2019 05 243^f.$click;[dupovHHAJe)XCWNunOQDgWYoycsnx]iHRfJT-t@j691
     P10NTjW KC2019 05 24R=GZrBNGssh+RB+_ty]Wh_0T/;*8`6V-qN*EOWrqb$mc/S].jnQP691
     P10NTjW  C2019 05 24.36637015 00 46.48 +25 16 41.1    ~5OCM 21.2 GVNEOCPH01
     P10NTjW  C2019 05 24.37080415 00 46.22 +25 16 41.9    ~5OCM 21.0 GVNEOCPH01
     P10NTjW  C2019 05 24.38894415 00 45.18 +25 16 44.9    ~5OCM 21.4 GVNEOCPH01
     P10NTjW  C2019 05 24.39282915 00 44.96 +25 16 45.6    ~5OCM 20.9 GVNEOCPH01
     P10NTjW KC2019 05 24X__herewUC5;ZE+M,*#MZ[AwkN4S)^H;D.8y+(:?MpJUWU1u2_/m291
     P10NTjW KC2019 05 24Z-8.AFJ^Of(7X[B:ubhFfw#u.xam-U'nG56Gp:,Eh\9JXSytuEar291
     P10NTjW KC2019 05 24H6'xNb-0VTylVo-:gfor*PZTexplanation/4.)cSD\V[=VYErfU291

Station data:
(291) LPL/Spacewatch II  (N31.961669 W111.599905)  US/Arizona.  Observers J.
   V. Scotti, R. S. McMillan. 1.8-m f/2.7 reflector + CCD.
(691) Steward Observatory, Kitt Peak - Spacewatch  (N31.962174 W111.600327)
   US/Arizona.  Observer J. V. Scotti. 0.9-m f/3 reflector + CCD.
(F51) Pan-STARRS 1, Haleakala  (N20.707235 W156.255910)  US/Hawaii.
   Observers N. Primak, A. Schultz, S. Watters, J. Thiel, T. Goggia. Measurer
   PS1 Science Consortium. 1.8-m Ritchey-Chrétien + CCD.
(H01) Magdalena Ridge Observatory, Socorro  (N33.984833 W107.189333)  US/New
   Mexico.  Observers W. H. Ryan, E. V. Ryan. Measurer W. H. Ryan. 2.4-m
   f/8.9 reflector + CCD.
(I52) Steward Observatory, Mt. Lemmon Station  (N32.442547 W110.788920)
   US/Arizona.  Observers T. A. Pruyne, B. M. Africano, E. J. Christensen, G.
   A. Farneth, D. C. Fuls, A. R. Gibbs, A. D. Grauer, H. Groeller, J. A.
   Johnson, R. A. Kowalski, S. M. Larson, G. J. Leonard, R. L. Seaman, F. C.
   Shelly. 1.0-m reflector + CCD.

Orbital elements:  P10NTjW
   Perihelion 2020 Mar 11.221482 +/- 0.0529 TT =  5:18:56 (JD 2458919.721482)
Epoch 2019 May 24.0 TT = JDT 2458627.5   Earth MOID: 0.6578   AutoNEOCP
M 252.04877184 +/- 0.018            (J2000 ecliptic)
n   0.36941578 +/- 1.09e-5          Peri.  185.30468 +/- 0.009
a   1.92364864 +/- 3.78e-5          Node   167.45721 +/- 0.0030
e   0.1349912 +/- 3.94e-5           Incl.   25.54366 +/- 0.0014
P   2.67/974.49d           H 18.8   G  0.15   U  5.1  
q 1.66397286 +/- 8.7e-5    Q 2.18332441 +/- 8.11e-5
From 21 observations 2019 Apr. 6-May 24; mean residual 0".23
Residuals in arcseconds: 
190406 F51  .08-  .00     190514 I52  .28-  .35+    190524 H01  .10-  .16+    
190406 F51  .10+  .08+    190514 I52  .09+  .48-    190524 H01  .15-  .21+    
190406 F51  .01-  .08-    190514 I52  .31+  .89+    190524 H01  .07-  .14+    
190511 F51  .13-  .15-    190514 I52  .01-  .33-    190524 H01  .03-  .19+    
190511 F51  .16+  .06-    190524 691  .11+  .32-    190524 291  .23+  .07-    
190511 F51  .06-  .08-    190524 691  .22+  .31-    190524 291  .01-  .07+    
190511 F51  .08-  .07-    190524 691  .05+  .09-    190524 291  .29-  .02+    

Ephemerides (geocentric):
Date (UTC) HH   RA              Dec         delta   r     elong  mag " sig PA
---- -- -- --  -------------   -----------  ------ ------ -----  --- ---- ---
2019 05 24 17  15 00 27.793   +25 17 42.64  1.2148 2.0322 131.5 21.9 .081  47
2019 05 24 18  15 00 25.488   +25 17 49.69  1.2149 2.0322 131.4 21.9 .082  47
2019 05 24 19  15 00 23.185   +25 17 56.69  1.2150 2.0321 131.4 21.9 .083  47
2019 05 24 20  15 00 20.883   +25 18 03.62  1.2152 2.0321 131.4 21.9 .084  47
2019 05 24 21  15 00 18.584   +25 18 10.51  1.2153 2.0320 131.4 21.9 .085  47
2019 05 24 22  15 00 16.286   +25 18 17.33  1.2155 2.0319 131.3 21.9 .086  46
2019 05 24 23  15 00 13.991   +25 18 24.10  1.2156 2.0319 131.3 21.9 .087  46
2019 05 25 00  15 00 11.697   +25 18 30.81  1.2158 2.0318 131.3 21.9 .088  46
2019 05 25 01  15 00 09.405   +25 18 37.47  1.2159 2.0318 131.3 21.9 .089  46
2019 05 25 02  15 00 07.115   +25 18 44.07  1.2160 2.0317 131.2 21.9 .090  46
2019 05 25 03  15 00 04.827   +25 18 50.62  1.2162 2.0316 131.2 21.9 .091  46
2019 05 25 04  15 00 02.540   +25 18 57.11  1.2163 2.0316 131.2 21.9 .092  46
2019 05 25 05  15 00 00.256   +25 19 03.54  1.2165 2.0315 131.2 21.9 .093  46
2019 05 25 06  14 59 57.974   +25 19 09.92  1.2166 2.0315 131.1 21.9 .093  46
2019 05 25 07  14 59 55.693   +25 19 16.24  1.2168 2.0314 131.1 21.9 .094  46
2019 05 25 08  14 59 53.414   +25 19 22.50  1.2169 2.0313 131.1 21.9 .095  45
2019 05 25 09  14 59 51.137   +25 19 28.71  1.2171 2.0313 131.1 21.9 .096  45
2019 05 25 10  14 59 48.862   +25 19 34.86  1.2172 2.0312 131.0 21.9 .097  45
2019 05 25 11  14 59 46.590   +25 19 40.96  1.2173 2.0312 131.0 21.9 .098  45
2019 05 25 12  14 59 44.318   +25 19 47.00  1.2175 2.0311 131.0 21.9 .099  45
2019 05 25 13  14 59 42.049   +25 19 52.98  1.2176 2.0310 131.0 21.9 .100  45
2019 05 25 14  14 59 39.782   +25 19 58.91  1.2178 2.0310 130.9 21.9 .101  45
2019 05 25 15  14 59 37.517   +25 20 04.79  1.2179 2.0309 130.9 21.9 .102  45
2019 05 25 16  14 59 35.254   +25 20 10.60  1.2181 2.0308 130.9 21.9 .103  45
2019 05 25 17  14 59 32.992   +25 20 16.36  1.2182 2.0308 130.8 21.9 .104  45
2019 05 25 18  14 59 30.733   +25 20 22.07  1.2184 2.0307 130.8 21.9 .105  44
2019 05 25 19  14 59 28.476   +25 20 27.72  1.2185 2.0307 130.8 21.9 .106  44
2019 05 25 20  14 59 26.220   +25 20 33.31  1.2187 2.0306 130.8 21.9 .107  44
2019 05 25 21  14 59 23.967   +25 20 38.85  1.2188 2.0305 130.7 21.9 .108  44
2019 05 25 22  14 59 21.715   +25 20 44.33  1.2190 2.0305 130.7 21.9 .109  44
2019 05 25 23  14 59 19.466   +25 20 49.76  1.2191 2.0304 130.7 21.9 .110  44
2019 05 26 00  14 59 17.218   +25 20 55.13  1.2193 2.0304 130.7 21.9 .111  44
2019 05 26 01  14 59 14.973   +25 21 00.44  1.2194 2.0303 130.6 21.9 .112  44
2019 05 26 02  14 59 12.729   +25 21 05.70  1.2196 2.0302 130.6 21.9 .113  44
2019 05 26 03  14 59 10.488   +25 21 10.91  1.2197 2.0302 130.6 21.9 .114  44
2019 05 26 04  14 59 08.248   +25 21 16.06  1.2199 2.0301 130.6 21.9 .115  44
2019 05 26 05  14 59 06.010   +25 21 21.15  1.2200 2.0301 130.5 21.9 .116  44
2019 05 26 06  14 59 03.775   +25 21 26.19  1.2202 2.0300 130.5 21.9 .117  43
2019 05 26 07  14 59 01.541   +25 21 31.17  1.2203 2.0299 130.5 21.9 .118  43
2019 05 26 08  14 58 59.310   +25 21 36.09  1.2205 2.0299 130.5 21.9 .119  43
2019 05 26 09  14 58 57.081   +25 21 40.96  1.2206 2.0298 130.4 21.9 .120  43
2019 05 26 10  14 58 54.853   +25 21 45.78  1.2208 2.0298 130.4 21.9 .121  43
2019 05 26 11  14 58 52.628   +25 21 50.54  1.2209 2.0297 130.4 21.9 .122  43
2019 05 26 12  14 58 50.405   +25 21 55.24  1.2211 2.0296 130.4 21.9 .123  43
2019 05 26 13  14 58 48.183   +25 21 59.89  1.2212 2.0296 130.3 21.9 .124  43
2019 05 26 14  14 58 45.964   +25 22 04.48  1.2214 2.0295 130.3 21.9 .125  43
2019 05 26 15  14 58 43.747   +25 22 09.02  1.2215 2.0295 130.3 21.9 .126  43
2019 05 26 16  14 58 41.532   +25 22 13.51  1.2217 2.0294 130.3 21.9 .127  43